SCP
-0 -0 -0 -0 -0 -0 -0 -0 -0 -0 -0 -0 -0 -0 -0 -0 -0 0 0 -0 -0 0 0 0 0 0 0 0 0 0 0 0 0
-0 -0 -0 -0 -0 -0 -0 -0 -0 -0 -0 -0 -0 -0 -0 -0 -0 -0 0 0 0 -0 -0 -0 -0 -0 0 0 0 0 0 0 0
-0 -0 -0 -0 -0 -0 -0 -0 -0 -0 -0 -0 -0 -0 -0 -0 -0 -0 0 0 0 0 0 -0 -0 -0 0 0 0 0 0 0 0
-0 -0 -0 -0 -0 -0 -0 -0 -0 -0 -0 -0 -0 -0 -0 -0 -0 -0 -0 -0 0 0 0 -0 -0 0 0 0 0 0 0 0 0
-0 -0 -0 -0 -0 -0 -0 -0 -0 -0 -0 -0 -0 -0 -0 -0 0 0 -0 -0 -0 -0 -0 -0 -0 0 0 0 0 -0 -0 0 0
-0 -0 -0 -0 -0 -0 -0 -0 -0 -0 -0 -0 -0 -0 -0 -0 -0 -0 -0 -0 -0 -0 -0 -0 0 0 0 0 0 0 -0 0 0
0 -0 -0 -0 -0 -0 -0 -0 -0 -0 -0 -0 -0 -0 -0 -0 -0 -0 -0 -0 -0 -0 -0 -0 -0 0 0 0 0 0 0 0 0
0 0 0 -0 -0 0 0 0 0 -0 -0 -0 -0 -0 -0 -0 -0 -0 -0 -0 -0 0 0 0 0 0 0 0 0 0 0 0 0
2 0 0 0 0 0 0 -0 0 0 0 0 0 -0 -0 -0 0 0 0 0 0 1 0 1 1 0 0 0 1 0 0 0 0
1 3 2 1 1 0 0 0 0 0 0 0 0 0 0 0 0 1 1 1 1 1 1 1 0 0 0 0 0 0 0 -0 0
1 1 3 2 2 2 2 1 1 0 0 0 0 0 0 1 1 1 2 2 2 2 2 1 0 0 0 0 0 0 0 0 0
0 0 1 3 3 3 3 2 1 0 0 0 0 0 0 1 1 2 2 2 2 2 2 2 1 0 0 0 0 -0 0 0 0
-0 0 0 0 1 4 4 3 2 1 0 0 1 1 0 1 1 2 2 2 2 3 3 1 0 0 0 0 -0 0 0 0 0
0 0 0 0 0 3 4 1 2 2 1 1 0 0 1 1 1 1 2 2 2 1 0 0 0 0 0 0 0 0 0 0 0
0 0 0 0 -0 -0 -0 -1 -1 -0 0 0 0 0 0 0 0 1 0 0 0 0 0 0 0 0 0 0 0 0 0 0 0
0 0 0 -0 0 0 -0 -2 -2 -2 -1 -0 -0 0 0 0 0 0 0 0 0 0 0 0 0 0 0 0 0 0 0 0 0
0 0 0 0 0 0 0 -0 1 -0 -1 -0 -0 0 0 0 0 0 0 0 0 0 0 0 0 0 0 0 0 0 0 0 0
0 0 0 0 0 0 0 0 1 1 0 -0 -0 0 0 0 0 0 0 0 0 0 0 0 0 0 0 0 0 0 0 0 0
0 0 0 0 -0 -0 -0 0 0 0 0 0 -0 0 0 0 0 0 0 0 0 0 0 0 0 0 0 0 0 0 0 0 0
0 -0 0 -0 0 -0 -0 0 0 0 -0 0 0 0 0 0 0 0 0 0 0 0 0 0 0 0 0 0 0 0 0 0 0
Wind_Speed_500mb
71 78 89 83 77 73 73 79 74 71 69 65 58 54 49 47 43 43 40 33 29 23 20 16 14 14 10 5 3 8 4 1 2
67 75 87 84 81 74 69 82 78 71 69 68 61 53 49 48 48 46 42 38 36 31 26 22 21 18 14 13 9 10 9 7 4
58 71 80 78 78 74 68 72 78 71 70 68 63 57 50 49 49 47 44 42 41 37 34 32 26 24 23 21 23 21 18 13 9
52 63 74 76 74 69 66 62 76 75 73 71 72 67 56 52 52 51 49 49 45 41 38 37 35 34 32 30 29 26 24 18 10
37 42 56 69 75 67 65 67 68 70 75 75 68 71 69 60 53 54 54 53 51 52 50 46 42 43 37 37 32 30 30 26 13
21 35 43 50 64 71 63 61 59 65 69 72 72 69 74 71 66 61 58 56 56 56 57 59 57 49 44 41 34 24 16 22 21
23 29 31 41 49 61 68 63 59 59 55 55 59 63 71 78 76 69 63 60 61 59 58 62 63 63 53 47 41 32 19 21 24
12 10 20 33 42 51 58 62 59 59 58 55 59 62 61 64 67 73 73 70 66 62 63 65 65 63 60 55 54 41 40 29 28
37 58 31 2 25 38 46 50 54 58 60 60 60 64 66 60 64 67 71 75 73 69 66 70 68 65 60 61 66 36 28 50 37
47 46 49 47 48 36 7 20 34 49 56 56 63 67 69 68 67 66 67 69 72 72 68 70 70 65 63 65 74 56 24 42 35
48 39 48 44 42 39 36 30 21 12 21 51 56 59 66 69 70 68 66 66 67 69 69 72 72 66 59 65 63 11 36 44 38
46 31 49 47 45 45 38 36 34 29 16 3 20 30 36 44 55 61 64 63 61 60 63 70 71 65 63 62 30 20 14 51 38
15 63 55 55 40 46 52 48 39 33 30 28 18 16 25 29 29 32 36 37 39 46 56 63 65 62 57 35 18 29 19 36 44
28 48 48 41 49 50 49 48 46 37 27 23 23 20 15 8 5 12 19 28 34 43 50 53 53 47 42 28 32 36 31 35 52
12 36 22 58 52 32 37 37 38 33 27 19 14 14 16 18 18 20 21 25 34 42 41 39 30 31 18 24 39 37 27 46 48
27 31 51 60 62 53 26 30 25 23 29 22 16 12 12 17 18 11 11 11 10 18 20 24 24 31 33 34 41 32 29 46 45
26 20 24 26 45 51 32 32 26 16 21 24 19 13 5 8 9 7 4 4 7 12 17 21 23 26 27 33 39 31 41 46 49
35 27 22 22 22 21 28 11 9 6 18 20 10 6 5 4 6 6 3 4 6 6 9 8 9 15 24 31 35 38 43 53 54
14 15 12 20 23 30 21 12 12 7 16 18 9 6 6 10 14 13 10 9 9 6 4 9 16 22 24 26 26 33 43 49 42
9 7 12 12 9 10 9 14 12 14 12 10 12 6 5 6 8 6 3 3 2 2 6 7 9 10 15 25 25 33 41 43 43
Wind_Direction_500mb
202 204 216 220 222 222 225 222 226 229 230 226 227 226 225 225 224 220 224 228 220 220 242 248 250 251 266 259 239 243 241 278 244
199 204 215 219 223 222 226 220 224 229 232 229 228 232 229 227 227 225 225 227 231 231 242 249 247 248 245 255 258 252 236 210 223
195 205 213 217 221 224 226 226 224 231 235 234 233 229 235 234 230 227 228 229 230 235 238 244 246 257 253 261 263 250 247 228 220
197 206 213 213 219 224 226 226 225 232 238 239 235 234 235 238 236 233 234 236 236 239 241 243 242 251 261 264 260 270 246 239 243
209 206 216 218 216 219 225 228 230 234 238 241 243 239 234 237 238 238 240 243 244 243 246 247 247 246 258 264 264 284 252 253 248
216 215 216 218 221 222 224 232 237 237 239 242 244 244 241 239 241 242 241 243 246 249 249 251 251 250 249 261 262 273 276 253 264
284 210 205 211 222 227 226 230 238 243 243 242 243 245 244 243 241 243 247 247 248 249 252 254 255 252 248 251 255 259 283 281 265
23 201 207 219 223 231 232 235 237 244 253 250 249 248 247 246 247 246 248 251 252 252 254 258 258 256 248 245 242 247 294 292 285
42 74 67 300 245 243 246 246 249 250 254 258 252 251 254 257 255 253 252 252 253 253 252 256 260 257 248 242 238 235 288 282 272
65 76 84 80 72 71 88 257 264 258 258 262 262 261 263 262 260 259 259 259 257 256 254 253 255 255 248 242 232 230 281 272 260
53 41 77 79 81 76 65 51 46 45 255 253 258 263 265 266 266 265 263 262 262 260 257 255 252 251 250 246 237 196 274 288 272
57 350 48 53 57 65 64 59 49 40 36 288 255 263 266 266 266 265 266 266 266 264 259 256 252 248 249 252 207 175 313 273 260
169 52 34 28 40 53 49 47 44 35 34 26 13 302 274 266 264 263 264 266 263 260 256 252 253 252 256 269 160 206 245 246 233
55 51 344 352 22 35 42 35 30 30 23 16 21 26 22 2 282 250 250 252 251 251 253 248 247 251 266 226 205 236 252 215 202
159 175 279 296 314 349 12 11 16 30 16 6 345 346 337 328 312 295 279 273 264 257 258 258 257 259 253 186 200 228 229 211 193
244 236 242 266 271 291 326 348 349 24 18 9 354 307 288 291 297 295 284 293 300 284 283 276 265 253 241 226 230 239 198 194 202
321 329 288 263 258 273 296 303 299 359 20 6 0 348 353 270 309 249 233 284 275 263 261 252 246 231 230 231 246 232 196 199 205
322 326 311 297 277 281 294 291 279 352 27 15 342 20 71 93 112 106 153 197 209 260 275 255 251 243 246 251 251 217 208 201 199
326 346 312 287 283 269 246 269 267 5 16 5 325 353 111 107 109 112 105 97 81 61 356 265 253 251 243 230 232 217 207 202 202
335 315 315 291 315 270 273 282 316 341 354 332 319 313 205 161 109 83 76 66 68 321 345 313 261 260 239 209 197 199 207 206 198
Wind_Speed_850mb
71 78 89 83 77 73 73 79 74 71 69 65 58 54 49 47 43 43 40 33 29 23 20 16 14 14 10 5 3 8 4 1 2
67 75 87 84 81 74 69 82 78 71 69 68 61 53 49 48 48 46 42 38 36 31 26 22 21 18 14 13 9 10 9 7 4
58 71 80 78 78 74 68 72 78 71 70 68 63 57 50 49 49 47 44 42 41 37 34 32 26 24 23 21 23 21 18 13 9
52 63 74 76 74 69 66 62 76 75 73 71 72 67 56 52 52 51 49 49 45 41 38 37 35 34 32 30 29 26 24 18 10
37 42 56 69 75 67 65 67 68 70 75 75 68 71 69 60 53 54 54 53 51 52 50 46 42 43 37 37 32 30 30 26 13
21 35 43 50 64 71 63 61 59 65 69 72 72 69 74 71 66 61 58 56 56 56 57 59 57 49 44 41 34 24 16 22 21
23 29 31 41 49 61 68 63 59 59 55 55 59 63 71 78 76 69 63 60 61 59 58 62 63 63 53 47 41 32 19 21 24
12 10 20 33 42 51 58 62 59 59 58 55 59 62 61 64 67 73 73 70 66 62 63 65 65 63 60 55 54 41 40 29 28
37 58 31 2 25 38 46 50 54 58 60 60 60 64 66 60 64 67 71 75 73 69 66 70 68 65 60 61 66 36 28 50 37
47 46 49 47 48 36 7 20 34 49 56 56 63 67 69 68 67 66 67 69 72 72 68 70 70 65 63 65 74 56 24 42 35
48 39 48 44 42 39 36 30 21 12 21 51 56 59 66 69 70 68 66 66 67 69 69 72 72 66 59 65 63 11 36 44 38
46 31 49 47 45 45 38 36 34 29 16 3 20 30 36 44 55 61 64 63 61 60 63 70 71 65 63 62 30 20 14 51 38
15 63 55 55 40 46 52 48 39 33 30 28 18 16 25 29 29 32 36 37 39 46 56 63 65 62 57 35 18 29 19 36 44
28 48 48 41 49 50 49 48 46 37 27 23 23 20 15 8 5 12 19 28 34 43 50 53 53 47 42 28 32 36 31 35 52
12 36 22 58 52 32 37 37 38 33 27 19 14 14 16 18 18 20 21 25 34 42 41 39 30 31 18 24 39 37 27 46 48
27 31 51 60 62 53 26 30 25 23 29 22 16 12 12 17 18 11 11 11 10 18 20 24 24 31 33 34 41 32 29 46 45
26 20 24 26 45 51 32 32 26 16 21 24 19 13 5 8 9 7 4 4 7 12 17 21 23 26 27 33 39 31 41 46 49
35 27 22 22 22 21 28 11 9 6 18 20 10 6 5 4 6 6 3 4 6 6 9 8 9 15 24 31 35 38 43 53 54
14 15 12 20 23 30 21 12 12 7 16 18 9 6 6 10 14 13 10 9 9 6 4 9 16 22 24 26 26 33 43 49 42
9 7 12 12 9 10 9 14 12 14 12 10 12 6 5 6 8 6 3 3 2 2 6 7 9 10 15 25 25 33 41 43 43
Wind_Direction_850mb
202 204 216 220 222 222 225 222 226 229 230 226 227 226 225 225 224 220 224 228 220 220 242 248 250 251 266 259 239 243 241 278 244
199 204 215 219 223 222 226 220 224 229 232 229 228 232 229 227 227 225 225 227 231 231 242 249 247 248 245 255 258 252 236 210 223
195 205 213 217 221 224 226 226 224 231 235 234 233 229 235 234 230 227 228 229 230 235 238 244 246 257 253 261 263 250 247 228 220
197 206 213 213 219 224 226 226 225 232 238 239 235 234 235 238 236 233 234 236 236 239 241 243 242 251 261 264 260 270 246 239 243
209 206 216 218 216 219 225 228 230 234 238 241 243 239 234 237 238 238 240 243 244 243 246 247 247 246 258 264 264 284 252 253 248
216 215 216 218 221 222 224 232 237 237 239 242 244 244 241 239 241 242 241 243 246 249 249 251 251 250 249 261 262 273 276 253 264
284 210 205 211 222 227 226 230 238 243 243 242 243 245 244 243 241 243 247 247 248 249 252 254 255 252 248 251 255 259 283 281 265
23 201 207 219 223 231 232 235 237 244 253 250 249 248 247 246 247 246 248 251 252 252 254 258 258 256 248 245 242 247 294 292 285
42 74 67 300 245 243 246 246 249 250 254 258 252 251 254 257 255 253 252 252 253 253 252 256 260 257 248 242 238 235 288 282 272
65 76 84 80 72 71 88 257 264 258 258 262 262 261 263 262 260 259 259 259 257 256 254 253 255 255 248 242 232 230 281 272 260
53 41 77 79 81 76 65 51 46 45 255 253 258 263 265 266 266 265 263 262 262 260 257 255 252 251 250 246 237 196 274 288 272
57 350 48 53 57 65 64 59 49 40 36 288 255 263 266 266 266 265 266 266 266 264 259 256 252 248 249 252 207 175 313 273 260
169 52 34 28 40 53 49 47 44 35 34 26 13 302 274 266 264 263 264 266 263 260 256 252 253 252 256 269 160 206 245 246 233
55 51 344 352 22 35 42 35 30 30 23 16 21 26 22 2 282 250 250 252 251 251 253 248 247 251 266 226 205 236 252 215 202
159 175 279 296 314 349 12 11 16 30 16 6 345 346 337 328 312 295 279 273 264 257 258 258 257 259 253 186 200 228 229 211 193
244 236 242 266 271 291 326 348 349 24 18 9 354 307 288 291 297 295 284 293 300 284 283 276 265 253 241 226 230 239 198 194 202
321 329 288 263 258 273 296 303 299 359 20 6 0 348 353 270 309 249 233 284 275 263 261 252 246 231 230 231 246 232 196 199 205
322 326 311 297 277 281 294 291 279 352 27 15 342 20 71 93 112 106 153 197 209 260 275 255 251 243 246 251 251 217 208 201 199
326 346 312 287 283 269 246 269 267 5 16 5 325 353 111 107 109 112 105 97 81 61 356 265 253 251 243 230 232 217 207 202 202
335 315 315 291 315 270 273 282 316 341 354 332 319 313 205 161 109 83 76 66 68 321 345 313 261 260 239 209 197 199 207 206 198